Regional Weather Roundup
Issued by NWS

Home | Current Version | Previous Version | Graphics & Text | Print | Product List | Glossary On
Versions: 1 2 3 4 5 6 7 8 9 10 11 12 13 14 15 16 17 18 19 20 21 22 23 24 25 26 27 28 29 30 31 32 33 34 35 36 37 38 39 40 41 42 43 44 45 46 47 48 49 50
000
ASUS43 KMKX 201000
RWRWI

WISCONSIN REGIONAL WEATHER ROUNDUP
NATIONAL WEATHER SERVICE MILWAUKEE/SULLIVAN WI
500 AM CDT SAT SEP 20 2014

NOTE: "FAIR" INDICATES FEW OR NO CLOUDS BELOW 12,000 FEET WITH NO
SIGNIFICANT WEATHER AND/OR OBSTRUCTIONS TO VISIBILITY.

WIZ001-002-006>008-014>016-023>028-201100-
NORTHWEST WISCONSIN

CITY           SKY/WX    TMP DP  RH WIND       PRES   REMARKS
SUPERIOR ARPT  CLOUDY    60  59  99 SW6       29.59R FOG
ASHLAND        PTCLDY    65  63  93 SW10      29.58R
HAYWARD        PTCLDY    65  65 100 SW6       29.63R
SIREN          CLOUDY    67  64  90 W10       29.65R
RICE LAKE      MOCLDY    67  64  91 SW9       29.67S
LADYSMITH      CLOUDY    68  65  93 SW10      29.68S
EAU CLAIRE     NOT AVBL
MENOMONIE      PTSUNNY   69  63  82 SW17      29.69R
NEW RICHMOND   PTCLDY    66  64  96 SW9       29.69R
OSCEOLA        MOCLDY    67  67 100 SW8       29.70R
$$

WIZ003>005-009-010-017-018-201100-
NORTH CENTRAL WISCONSIN

CITY           SKY/WX    TMP DP  RH WIND       PRES   REMARKS
WOODRUFF       CLOUDY    65  62  91 SW6       29.66F
RHINELANDER    CLOUDY    63  60  90 SW12      29.71R
EAGLE RIVER    CLOUDY    64  60  87 SW10      29.66F
LAND O LAKES   CLOUDY    64  60  88 SW8       29.66F
PHILLIPS       CLOUDY    65  64  96 SW10      29.66S
TOMAHAWK       CLOUDY    64  60  89 S3        29.70S
MEDFORD        CLOUDY    64  62  95 S10       29.71S
MERRILL        CLOUDY    65  63  93 SW10G17   29.71R
$$

WIZ029-030-035-036-043>047-201100-
CENTRAL WISCONSIN

CITY           SKY/WX    TMP DP  RH WIND       PRES   REMARKS
WAUSAU         CLOUDY    64  62  93 SW9       29.72R
MOSINEE        CLOUDY    63  63 100 S12G18    29.75S
MARSHFIELD     CLOUDY    66  63  90 SW9       29.73S
STEVENS POINT  LGT RAIN  62  61  96 SW8       29.75S
WAUPACA        LGT RAIN  64  63  95 S8        29.74F
WAUTOMA        LGT RAIN  64  63  94 S14       29.77F
WISC RAPIDS    LGT RAIN  65  62  90 SW6       29.77R
CAMP DOUGLAS   CLOUDY    64  64 100 W9        29.74F
$$

WIZ011>013-019>022-031-037>040-048>050-201100-
NORTHEAST WISCONSIN

CITY           SKY/WX    TMP DP  RH WIND       PRES   REMARKS
ANTIGO         CLOUDY    62  60  93 SW14G20   29.72R
STURGEON BAY   CLOUDY    63  59  88 SW14      29.73F
GREEN BAY      LGT RAIN  62  61  96 SW9G20    29.74F
MANITOWOC      LGT RAIN  64  61  88 SW14G23   29.77F
APPLETON       RAIN      63  61  94 SW21G28   29.77S
CLINTONVILLE   CLOUDY    63  61  94 SW8       29.74R
OSHKOSH        LGT RAIN  65  62  90 SW14G22   29.77F
$$

WIZ032>034-041-042-053>061-201100-
SOUTHWEST WISCONSIN

CITY           SKY/WX    TMP DP  RH WIND       PRES   REMARKS
LA CROSSE      CLOUDY    66  62  87 S8        29.74S
SPARTA         CLOUDY    64  62  91 SW3       29.76R
VIROQUA        FAIR      64  64 100 SW9       29.81R
BOSCOBEL       LGT RAIN  66  63  90 S9        29.82F
PRAIRIE DU CHI RAIN      65  64  95 SW5       29.83F
PLATTEVILLE    FAIR      64  62  94 S7        29.90S
$$

WIZ056-057-062-063-064-067-068-201100-
SOUTH CENTRAL WISCONSIN

CITY           SKY/WX    TMP DP  RH WIND       PRES   REMARKS
BARABOO/DELLS  LGT RAIN  63  60  91 S9        29.78F
LONE ROCK      NOT AVBL
WATERTOWN      LGT RAIN  65  60  85 SW8       29.85F
MADISON        LGT RAIN  65  61  87 SW7       29.83F
MIDDLETON      CLOUDY    66  62  88 SW13      29.85F
MONROE         DRIZZLE   63  61  94 SW13      29.90F
JANESVILLE     LGT RAIN  63  57  82 SW10      29.90R
$$

WIZ051-052-058>065-066-070>072-201100-
SOUTHEAST WISCONSIN

CITY           SKY/WX    TMP DP  RH WIND       PRES   REMARKS
MILWAUKEE      CLOUDY    66  55  67 SW18G31   29.87R
WAUKESHA       RAIN      63  55  77 SW13G25   29.89R
MILWAUKEE/TIMM CLOUDY    64  54  68 W15G29    29.87R
RACINE         CLOUDY    66  55  67 W13G20    29.91R
BURLINGTON     CLOUDY    62  54  75 W10G17    29.91R
KENOSHA        CLOUDY    66  56  70 W16G23    29.90R
FOND DU LAC    LGT RAIN  63  59  87 SW14      29.81R
SHEBOYGAN      LGT RAIN  64  59  83 W20G26    29.80F
WEST BEND      LGT RAIN  63  55  77 SW13G24   29.83F
JUNEAU         LGT RAIN  61  58  90 S9        29.87S
$$

LSZ147-162-201100-
LAKE SUPERIOR

STATION/POSITION TIME  TEMP    WIND        PRES    WAVE
                       AIR SEA DIR/SP/G            HT/PER
                 (UTC) (F)     (DEG/KT/KT) (MB)    (FT/S)
W MID LAKE BUOY  0850   55 48  240/  8/ 10 1000.4F   1
DEVILS ISLAND    0900   61     220/ 12/ 13 1000.5F
PORT WING        0900   62     190/  3/  5 1001.4
SAXON HARBOR     0900   68     190/  7/ 11 1001.4F
$$

LMZ867-665-643>646-201100-
LAKE MICHIGAN

STATION/POSITION TIME  TEMP    WIND        PRES    WAVE
                       AIR SEA DIR/SP/G            HT/PER
                 (UTC) (F)     (DEG/KT/KT) (MB)    (FT/S)
N MID LAKE BUOY  0850   60 58  210/ 21/ 27 1005.4F   8/ 8
NORTHPORT PIER   0900   59     190/  6/ 11 1006.1S
SISTER BAY       0742          180/ 11/ 13   N/A
KEWAUNEE LAKESHO 0900   62     230/  9/ 15 1006.5F
SHEBOYGAN LAKESH 0900   68 55  230/ 18/ 26 1009.2R
PORT WASHINGTON  0900   68     250/ 11/ 24 1010.5R
ATWATER BUOY     0900   66     210/ 16/ 23 1011.3F
MILWAUKEE LAKESH 0900   67     230/ 17/ 21   N/A
S MID LAKE BUOY  0850   65 64  200/ 21/ 25 1011.6R   4/ 5
KENOSHA   LAKESH 0900   67     230/ 10/ 17 1011.9R
$$

TC  - TEMPERATURE IN CELSIUS
VSB - VISIBILITY IN STATUTE MILES
WCI - WIND CHILL INDEX
HX  - HEAT INDEX



USA.gov is the U.S. government's official web portal to all federal, state and local government web resources and services.